Regional Weather Roundup
Issued by NWS Grand Forks, ND

Home | Current Version | Previous Version | Graphics & Text | Print | Product List | Glossary On
Versions: 1 2 3 4 5 6 7 8 9 10 11 12 13 14 15 16 17 18 19 20 21 22 23 24 25 26 27 28 29 30 31 32 33 34 35 36 37 38 39 40 41 42 43 44 45 46 47 48 49 50
000
ASUS43 KFGF 222231
RWRFGF
PRAIRIE TO PINES  WEATHER ROUNDUP
NATIONAL WEATHER SERVICE EASTERN NORTH DAKOTA/GRAND FORKS ND
500 PM CDT FRI MAY 22 2015

 **SATELLITE DATA USED TO AUGMENT SKY COVER AT AUTOMATED STATIONS**
 *****  WEATHER ACROSS EASTERN NORTH DAKOTA  *****

CITY           SKY/WX    TMP DP  RH WIND       PRES   REMARKS
GRAND FORKS    MOSUNNY   77  39  25 S12       30.12F
GRAND FRKS AFB SUNNY     78  39  24 SW5       30.13F
GRAND FRKS NWS   N/A     77 N/A N/A S2          N/A
DEVILS LAKE    SUNNY     75  36  23 S16       30.12F
FARGO          SUNNY     75  43  31 S13       30.14F
WAHPETON ARPT  CLEAR     73  30  20 SE6       30.15S
$$

 ***** WEATHER ACROSS CENTRAL AND WESTERN NORTH DAKOTA  *****

CITY           SKY/WX    TMP DP  RH WIND       PRES   REMARKS
BISMARCK       MOSUNNY   76  37  24 SE14      30.10F
MINOT          SUNNY     76  30  18 VRB5      30.08F
JAMESTOWN      SUNNY     74  34  23 SE13      30.12F
MINOT AFB      MOSUNNY   77  35  21 S13       30.07F
GARRISON         N/A     74  34  23 S14       30.09F
WILLISTON      SUNNY     76  32  20 SE12G24   30.04F
DICKINSON      SUNNY     71  32  23 SE25G38   30.05S
HETTINGER      MOSUNNY   68  32  26 S22G29    30.07F
$$

 *****  OTHER AIRPORT OBSERVATIONS IN OUR AREA  *****

CITY           SKY/WX    TMP DP  RH WIND       PRES   REMARKS
WALHALLA       FAIR      73  39  29 E5        30.09F
GRAFTON AIRPOR FAIR      77  39  25 SW12G17   30.12S
VALLEY CITY AR FAIR      73  34  23 SE9G17    30.14F
CANDO          FAIR      77  30  18 S17       30.12F
CAVALIER APRT  FAIR      77  39  25 SW13G18   30.09F
GWINNER        NOT AVBL
ROLLA          FAIR      72  27  18 S14G24    30.12F
 ***** THE ABOVE OBSERVATIONS ARE NON NWS ARE NOT QUALITY
       CONTROLLED AND MAY MIS-REPORT RAIN FOR SNOW...
$$

  *****  WEATHER ACROSS NORTHERN MINNESOTA  *****

CITY           SKY/WX    TMP DP  RH WIND       PRES   REMARKS
FLAG ISLAND    MOSUNNY   73  37  27 W14G22    30.05F
WARROAD        SUNNY     75  45  33 SW15G23   30.10F
ROSEAU         SUNNY     75  37  25 SW14      30.11S
HALLOCK        MOSUNNY   79  36  21 SW14G26   30.09F
THF RVR FALLS  SUNNY     75  34  22 S12       30.14F
BAUDETTE       MOSUNNY   75  37  25 W6        30.10F
WASKISH        SUNNY     73  43  33 CALM      30.14F
CROOKSTON      SUNNY     75  37  25 W8        30.14F
STEPHEN NDAWN    N/A     77  39  25 W12         N/A
GREENBUSH NDAW   N/A     75  41  29 SW12        N/A
$$
  *****  WEATHER ACROSS CENTRAL AND WEST MINNESOTA  *****

CITY           SKY/WX    TMP DP  RH WIND       PRES   REMARKS
FOSSTON        SUNNY     77  32  19 CALM      30.16S
BEMIDJI        SUNNY     74  34  23 CALM      30.15F
PARK RAPIDS    SUNNY     75  31  19 CALM      30.16F
ELBOW LAKE     FAIR      73  35  25 S6        30.16F
WADENA         SUNNY     72  37  28 SE3       30.17F
DETROIT LAKES  SUNNY     72  34  25 S7        30.18F
MOORHEAD       SUNNY     75  36  23 S7        30.15F
FERGUS FALLS   SUNNY     73  34  23 SE8       30.15F
MORRIS MN      SUNNY     75  30  19 S6        30.15F
STAPLES        SUNNY     72  32  23 CALM      30.18S
$$
  *****  WEATHER ELSEWHERE ACROSS MINNESOTA  *****

CITY           SKY/WX    TMP DP  RH WIND       PRES   REMARKS
DULUTH         MOSUNNY   72  32  23 NW10      30.17F
INTRNTL FALLS  SUNNY     74  29  19 W7        30.11F
ELY            SUNNY     70  28  21 W6G20     30.14S
CLOQUET        SUNNY     72  27  18 NW9       30.17S
WHEATON        SUNNY     72  32  23 SE7       30.16F
BRAINERD       SUNNY     72  32  23 VRB5      30.18F
HIBBING        SUNNY     71  31  22 S5        30.15F
ALEXANDRIA     SUNNY     71  32  23 S5        30.19F
SAINT CLOUD    SUNNY     72  36  26 W8        30.18F
MINNEAPOLIS    MOSUNNY   74  35  24 VRB7      30.18F
$$

  *****  WEATHER ACROSS SOUTH DAKOTA  *****

CITY           SKY/WX    TMP DP  RH WIND       PRES   REMARKS
SIOUX FALLS    CLOUDY    70  38  31 S14       30.15F
BROOKINGS      CLOUDY    73  34  23 S5        30.15F
WATERTOWN      MOSUNNY   73  34  23 VRB5      30.14F
HURON          CLOUDY    73  38  27 S10G20    30.12F
SISSETON         N/A     76  24  14 S7        30.13F
ABERDEEN       MOSUNNY   73  40  30 SE8       30.11F
MITCHELL       CLOUDY    71  40  32 S13       30.14F
PIERRE         CLOUDY    69  36  29 SE21G29   30.09F
MOBRIDGE       PTSUNNY   73  41  31 SE16      30.07F
RAPID CITY     CLOUDY    60  41  49 S16       30.07S
$$

  *****  SOME WEATHER IN NEARBY STATES *****

CITY           SKY/WX    TMP DP  RH WIND       PRES   REMARKS
GLASGOW MT     MOSUNNY   73  40  30 S16G26    29.97F
GREAT FALLS MT SUNNY     70  38  31 NE9       29.92F
CHEYENNE WY    CLOUDY    48  42  80 E8        30.00F
SCOTTSBLUFF NE CLOUDY    49  46  90 E17       30.05F
OMAHA NE       CLOUDY    63  49  60 E9        30.22F
DES MOINES IA  CLOUDY    75  39  27 W6        30.19F
DAVENPORT IA   CLOUDY    75  33  21 SW8       30.19F
CHICAGO IL     PTSUNNY   62  25  24 E10       30.24S
EAU CLAIRE WI  SUNNY     72  32  23 NW3       30.20F
LA CROSSE WI   MOSUNNY   76  34  21 N6        30.18F
$$

  *****  SOME NATIONAL WEATHER *****

CITY           SKY/WX    TMP DP  RH WIND       PRES   REMARKS
LA GUARDIA NY  MOSUNNY   70  40  33 NW13G29   29.94S
RALEIGH NC     MOSUNNY   74  44  34 VRB5      30.19R
ATLANTA GA     MOSUNNY   78  51  38 NW9       30.19S
NEW ORLEANS LA MOSUNNY   82  66  58 N8        30.14S
OKLAHOMA CITY  DRIZZLE   56  54  93 SE8       30.15S FOG
ALBUQUERQUE NM MOSUNNY   74  33  22 S23G35    29.97F
SALT LAKE CITY LGT RAIN  58  46  64 E14       29.88S
LOS ANGELES CA PTSUNNY   64  53  67 SW14      30.03S
BOISE ID       PTSUNNY   70  47  43 NE6       29.82F
SEATTLE WA     CLOUDY    60  50  69 SW7       30.02R
$$

*** WEATHER ACROSS MANITOBA...SASKATCHEWAN AND ONTARIO ***
                ***ONTARIO***

CITY           SKY/WX    TMP DP  RH WIND       PRES   REMARKS
GERALDTON      SUNNY     57  16  19 SW10      30.14F
THUNDER BAY    SUNNY     59  23  25 S14G22    30.18S
SIOUX LOOKOUT  MOSUNNY   72  37  28 SW9       30.06F
TORONTO        MOSUNNY   54  30  40 N18       30.19R
BIG TROUT LK   PTSUNNY   59  23  25 VRB2      29.95F
PICKLE LAKE    PTSUNNY   64  27  24 W9        30.03
DRYDEN         SUNNY     72  36  26 SW13G22   30.07F
KENORA         PTSUNNY   72  39  30 MISG      30.07F
$$
                *** MANITOBA***

CITY           SKY/WX    TMP DP  RH WIND       PRES   REMARKS
BRANDON        PTSUNNY   77  36  22 W8        30.09S
DAUPHIN        SUNNY     77  37  24 W15       30.04
ISLAND LAKE    MOSUNNY   73  39  29 W13G20    29.86S
PILOT MOUND      N/A     75  30  19 S10         N/A
THE PAS        PTSUNNY   79  30  17 N9        29.93F
THOMPSON       MOSUNNY   77  34  20 NW7       29.89F
WINNIPEG       PTSUNNY   77  36  22 W12       30.06S
LYNN LAKE      SUNNY     79  23  12 W9G18     29.91S
CHURCHILL      CLOUDY    36  32  87 N18       30.02R
GILLAM         MOSUNNY   70  36  28 W8        29.87S
$$
                ***SASKATCHEWAN***

CITY           SKY/WX    TMP DP  RH WIND       PRES   REMARKS
ESTEVAN        MOSUNNY   75  34  22 SE7       30.07S
KINDERSLEY     SUNNY     79  27  14 S16G24    30.00F
LLOYDMINSTER   MOSUNNY   77  23  13 VRB7      30.00F
PRINCE ALBERT  MOSUNNY   81  32  17 W8G18     30.00F
REGINA         MOSUNNY   73  36  25 SE9       30.05F
YORKTON        SUNNY     79  27  14 S12G17    30.06S
N. BATTLEFORD  SUNNY     79  25  13 SW9G20    30.02F
LA RONGE       MOSUNNY   81  28  15 W10       29.93F
SASKATOON      MOSUNNY   79  30  17 SW6G18    30.04S
SWIFT CURRENT  SUNNY     73  28  19 SE15G28   30.02F
$$
NOTE: THESE ARE AUTOMATED STATIONS WITH LIMITED QUALITY CONTROL
      "FAIR" INDICATES FEW OR NO CLOUDS BELOW 12,000 FEET WITH NO
      SIGNIFICANT WEATHER AND/OR OBSTRUCTIONS TO VISIBILITY.
      SKY/WX - SKY CONDITION AND SIGNIFICANT WEATHER.
      TMP - AIR TEMPERATURE.    DP   - DEWPOINT TEMPERATURE.
      RH  - RELATIVE HUMIDITY.  PRES - PRESSURE.
      HX  - HEAT INDEX.         WCI  - WIND CHILL INDEX.
$



USA.gov is the U.S. government's official web portal to all federal, state and local government web resources and services.